Saint Bonnet de Bellac- Haute Vienne - France
Donnes mto: lundi, 16/01/2012
Date Horaire Temp. E. Hum. E. P.atmo. Pluie Vent Direction Direction Ensoleilleme Solaire P. de rose Temp au vent Rafales
16/01/2012 00:00 -3,2 C 93 % 1014,1 hPa 0,0 mm 0,4 km/h (0 Bft) E-NE 67 0 min 0 W/m -4,2 C -3,2 C 2,9 km/h (1 Bft)
16/01/2012 00:10 -3,4 C 93 % 1014,1 hPa 0,0 mm 0,0 km/h (0 Bft) SE 135 0 min 0 W/m -4,4 C -3,4 C 0,0 km/h (0 Bft)
16/01/2012 00:20 -3,5 C 93 % 1014,0 hPa 0,0 mm 0,4 km/h (0 Bft) E-NE 67 0 min 0 W/m -4,5 C -3,5 C 0,4 km/h (0 Bft)
16/01/2012 00:30 -3,7 C 92 % 1014,0 hPa 0,0 mm 0,0 km/h (0 Bft) E-NE 67 0 min 0 W/m -4,8 C -3,7 C 0,0 km/h (0 Bft)
16/01/2012 00:40 -3,9 C 92 % 1014,0 hPa 0,0 mm 0,7 km/h (0 Bft) E-SE 112 0 min 0 W/m -5,0 C -3,9 C 0,7 km/h (0 Bft)
16/01/2012 00:50 -4,1 C 92 % 1014,0 hPa 0,0 mm 0,0 km/h (0 Bft) E-SE 112 0 min 0 W/m -5,2 C -4,1 C 0,0 km/h (0 Bft)
16/01/2012 01:00 -4,2 C 93 % 1014,0 hPa 0,0 mm 0,0 km/h (0 Bft) E-NE 67 0 min 0 W/m -5,2 C -4,2 C 3,2 km/h (1 Bft)
16/01/2012 01:10 -4,4 C 93 % 1014,0 hPa 0,0 mm 0,0 km/h (0 Bft) SE 135 0 min 0 W/m -5,4 C -4,4 C 3,6 km/h (1 Bft)
16/01/2012 01:20 -4,5 C 93 % 1013,9 hPa 0,0 mm 0,0 km/h (0 Bft) SE 135 0 min 0 W/m -5,5 C -4,5 C 0,0 km/h (0 Bft)
16/01/2012 01:30 -4,6 C 93 % 1013,8 hPa 0,0 mm 1,1 km/h (1 Bft) S-SE 157 0 min 0 W/m -5,6 C -4,6 C 4,0 km/h (1 Bft)
16/01/2012 01:40 -4,6 C 93 % 1013,7 hPa 0,0 mm 0,7 km/h (0 Bft) S-SE 157 0 min 0 W/m -5,6 C -4,6 C 3,2 km/h (1 Bft)
16/01/2012 01:50 -4,6 C 93 % 1013,6 hPa 0,0 mm 0,0 km/h (0 Bft) SE 135 0 min 0 W/m -5,6 C -4,6 C 0,0 km/h (0 Bft)
16/01/2012 02:02 -4,5 C 93 % 1013,4 hPa 0,0 mm 0,4 km/h (0 Bft) SE 135 0 min 0 W/m -5,5 C -4,5 C 3,2 km/h (1 Bft)
16/01/2012 02:10 -4,6 C 93 % 1013,4 hPa 0,0 mm 0,4 km/h (0 Bft) E-NE 67 0 min 0 W/m -5,6 C -4,6 C 0,4 km/h (0 Bft)
16/01/2012 02:20 -4,6 C 93 % 1013,5 hPa 0,0 mm 0,7 km/h (0 Bft) E 90 0 min 0 W/m -5,6 C -4,6 C 0,7 km/h (0 Bft)
16/01/2012 02:30 -4,6 C 93 % 1013,5 hPa 0,0 mm 0,4 km/h (0 Bft) E-SE 112 0 min 0 W/m -5,6 C -4,6 C 4,0 km/h (1 Bft)
16/01/2012 02:40 -4,5 C 93 % 1013,6 hPa 0,0 mm 0,0 km/h (0 Bft) E-SE 112 0 min 0 W/m -5,5 C -4,5 C 1,4 km/h (1 Bft)
16/01/2012 02:50 -4,4 C 93 % 1013,7 hPa 0,0 mm 0,0 km/h (0 Bft) E-NE 67 0 min 0 W/m -5,4 C -4,4 C 0,0 km/h (0 Bft)
16/01/2012 03:00 -4,4 C 93 % 1013,7 hPa 0,0 mm 0,0 km/h (0 Bft) E 90 0 min 0 W/m -5,4 C -4,4 C 0,0 km/h (0 Bft)
16/01/2012 03:10 -4,4 C 93 % 1013,9 hPa 0,0 mm 1,1 km/h (1 Bft) E-SE 112 0 min 0 W/m -5,4 C -4,4 C 4,0 km/h (1 Bft)
16/01/2012 03:20 -4,2 C 93 % 1013,8 hPa 0,0 mm 0,4 km/h (0 Bft) E 90 0 min 0 W/m -5,2 C -4,2 C 0,4 km/h (0 Bft)
16/01/2012 03:30 -4,1 C 93 % 1013,8 hPa 0,0 mm 0,0 km/h (0 Bft) E-SE 112 0 min 0 W/m -5,1 C -4,1 C 0,0 km/h (0 Bft)
16/01/2012 03:40 -4,0 C 93 % 1013,8 hPa 0,0 mm 2,5 km/h (1 Bft) E 90 0 min 0 W/m -5,0 C -4,0 C 4,0 km/h (1 Bft)
16/01/2012 03:50 -4,0 C 93 % 1013,8 hPa 0,0 mm 0,0 km/h (0 Bft) SE 135 0 min 0 W/m -5,0 C -4,0 C 0,0 km/h (0 Bft)
16/01/2012 04:00 -4,1 C 93 % 1013,8 hPa 0,0 mm 0,0 km/h (0 Bft) E 90 0 min 0 W/m -5,1 C -4,1 C 0,0 km/h (0 Bft)
16/01/2012 04:10 -4,1 C 93 % 1013,7 hPa 0,0 mm 0,0 km/h (0 Bft) SE 135 0 min 0 W/m -5,1 C -4,1 C 0,0 km/h (0 Bft)
16/01/2012 04:20 -4,2 C 93 % 1013,7 hPa 0,0 mm 0,0 km/h (0 Bft) SE 135 0 min 0 W/m -5,2 C -4,2 C 0,0 km/h (0 Bft)
16/01/2012 04:30 -4,2 C 93 % 1013,7 hPa 0,0 mm 2,5 km/h (1 Bft) SE 135 0 min 0 W/m -5,2 C -4,2 C 4,3 km/h (1 Bft)
16/01/2012 04:40 -4,1 C 93 % 1013,7 hPa 0,0 mm 1,4 km/h (1 Bft) E 90 0 min 0 W/m -5,1 C -4,1 C 4,3 km/h (1 Bft)
16/01/2012 04:50 -4,2 C 93 % 1013,8 hPa 0,0 mm 0,7 km/h (0 Bft) SE 135 0 min 0 W/m -5,2 C -4,2 C 0,7 km/h (0 Bft)
16/01/2012 05:00 -4,1 C 93 % 1013,8 hPa 0,0 mm 0,0 km/h (0 Bft) E 90 0 min 0 W/m -5,1 C -4,1 C 4,0 km/h (1 Bft)
16/01/2012 05:10 -4,0 C 93 % 1013,9 hPa 0,0 mm 2,2 km/h (1 Bft) E 90 0 min 0 W/m -5,0 C -4,0 C 4,3 km/h (1 Bft)
16/01/2012 05:20 -4,0 C 93 % 1013,9 hPa 0,0 mm 0,0 km/h (0 Bft) E 90 0 min 0 W/m -5,0 C -4,0 C 0,0 km/h (0 Bft)
16/01/2012 05:30 -4,2 C 92 % 1013,8 hPa 0,0 mm 1,4 km/h (1 Bft) S-SE 157 0 min 0 W/m -5,3 C -4,2 C 4,3 km/h (1 Bft)
16/01/2012 05:40 -4,2 C 93 % 1013,8 hPa 0,0 mm 0,0 km/h (0 Bft) E 90 0 min 0 W/m -5,2 C -4,2 C 2,9 km/h (1 Bft)
16/01/2012 05:50 -4,2 C 93 % 1013,9 hPa 0,0 mm 2,5 km/h (1 Bft) E-NE 67 0 min 0 W/m -5,2 C -4,2 C 4,0 km/h (1 Bft)
16/01/2012 06:00 -4,2 C 93 % 1013,9 hPa 0,0 mm 2,9 km/h (1 Bft) SE 135 0 min 0 W/m -5,2 C -4,2 C 6,8 km/h (2 Bft)
16/01/2012 06:10 -4,1 C 93 % 1013,9 hPa 0,0 mm 1,8 km/h (1 Bft) E 90 0 min 0 W/m -5,1 C -4,1 C 3,2 km/h (1 Bft)
16/01/2012 06:20 -4,1 C 93 % 1013,9 hPa 0,0 mm 0,7 km/h (0 Bft) E-SE 112 0 min 0 W/m -5,1 C -4,1 C 4,3 km/h (1 Bft)
16/01/2012 06:30 -4,1 C 93 % 1014,1 hPa 0,0 mm 0,7 km/h (0 Bft) E-SE 112 0 min 0 W/m -5,1 C -4,1 C 0,7 km/h (0 Bft)
16/01/2012 06:40 -4,1 C 93 % 1014,1 hPa 0,0 mm 2,9 km/h (1 Bft) E-NE 67 0 min 0 W/m -5,1 C -4,1 C 7,6 km/h (2 Bft)
16/01/2012 06:50 -4,2 C 93 % 1014,2 hPa 0,0 mm 1,1 km/h (1 Bft) E 90 0 min 0 W/m -5,2 C -4,2 C 3,6 km/h (1 Bft)
16/01/2012 07:00 -4,1 C 93 % 1014,3 hPa 0,0 mm 0,4 km/h (0 Bft) SE 135 0 min 0 W/m -5,1 C -4,1 C 0,4 km/h (0 Bft)
16/01/2012 07:10 -4,0 C 93 % 1014,2 hPa 0,0 mm 1,1 km/h (1 Bft) E 90 0 min 0 W/m -5,0 C -4,0 C 1,1 km/h (1 Bft)
16/01/2012 07:20 -4,0 C 93 % 1014,2 hPa 0,0 mm 0,4 km/h (0 Bft) E-NE 67 0 min 0 W/m -5,0 C -4,0 C 3,2 km/h (1 Bft)
16/01/2012 07:30 -4,0 C 93 % 1014,4 hPa 0,0 mm 2,9 km/h (1 Bft) E-SE 112 0 min 0 W/m -5,0 C -4,0 C 4,0 km/h (1 Bft)
16/01/2012 07:40 -4,0 C 93 % 1014,4 hPa 0,0 mm 1,8 km/h (1 Bft) E 90 0 min 0 W/m -5,0 C -4,0 C 6,1 km/h (2 Bft)
16/01/2012 07:50 -4,0 C 93 % 1014,4 hPa 0,0 mm 0,7 km/h (0 Bft) E 90 0 min 0 W/m -5,0 C -4,0 C 0,7 km/h (0 Bft)
16/01/2012 08:00 -4,0 C 93 % 1014,6 hPa 0,0 mm 2,9 km/h (1 Bft) E-NE 67 0 min 0 W/m -5,0 C -4,0 C 4,0 km/h (1 Bft)
16/01/2012 08:10 -4,1 C 92 % 1014,7 hPa 0,0 mm 1,4 km/h (1 Bft) E 90 0 min 0 W/m -5,2 C -4,1 C 3,6 km/h (1 Bft)
16/01/2012 08:20 -3,9 C 93 % 1014,8 hPa 0,0 mm 0,7 km/h (0 Bft) E-SE 112 0 min 0 W/m -4,9 C -3,9 C 3,2 km/h (1 Bft)
16/01/2012 08:30 -3,8 C 93 % 1014,8 hPa 0,0 mm 1,8 km/h (1 Bft) E-SE 112 0 min 0 W/m -4,8 C -3,8 C 4,3 km/h (1 Bft)
16/01/2012 08:40 -3,8 C 92 % 1014,9 hPa 0,0 mm 1,1 km/h (1 Bft) E-NE 67 0 min 0 W/m -4,9 C -3,8 C 4,0 km/h (1 Bft)
16/01/2012 08:50 -3,9 C 93 % 1014,9 hPa 0,0 mm 0,0 km/h (0 Bft) E-SE 112 2 min 0 W/m -4,9 C -3,9 C 0,0 km/h (0 Bft)
16/01/2012 09:00 -3,9 C 93 % 1015,0 hPa 0,0 mm 2,5 km/h (1 Bft) E-NE 67 2 min 0 W/m -4,9 C -3,9 C 4,0 km/h (1 Bft)
16/01/2012 09:10 -3,7 C 93 % 1015,1 hPa 0,0 mm 4,3 km/h (1 Bft) E-SE 112 2 min 0 W/m -4,7 C -3,7 C 4,3 km/h (1 Bft)
16/01/2012 09:20 -3,2 C 94 % 1015,3 hPa 0,0 mm 1,1 km/h (1 Bft) SE 135 2 min 0 W/m -4,0 C -3,2 C 4,3 km/h (1 Bft)
16/01/2012 09:30 -2,6 C 94 % 1015,5 hPa 0,0 mm 0,0 km/h (0 Bft) SE 135 2 min 0 W/m -3,4 C -2,6 C 4,3 km/h (1 Bft)
16/01/2012 09:40 -2,1 C 94 % 1015,6 hPa 0,0 mm 1,1 km/h (1 Bft) SE 135 2 min 0 W/m -2,9 C -2,1 C 4,0 km/h (1 Bft)
16/01/2012 09:50 -1,6 C 93 % 1015,8 hPa 0,0 mm 0,0 km/h (0 Bft) E-SE 112 2 min 0 W/m -2,6 C -1,6 C 0,0 km/h (0 Bft)
16/01/2012 10:00 -1,2 C 93 % 1015,8 hPa 0,0 mm 1,8 km/h (1 Bft) E-NE 67 2 min 0 W/m -2,2 C -1,2 C 4,0 km/h (1 Bft)
16/01/2012 10:10 -0,9 C 92 % 1015,8 hPa 0,0 mm 4,0 km/h (1 Bft) E-SE 112 2 min 0 W/m -2,0 C -0,9 C 7,2 km/h (2 Bft)
16/01/2012 10:20 -0,6 C 92 % 1016,1 hPa 0,0 mm 2,2 km/h (1 Bft) E-SE 112 2 min 0 W/m -1,7 C -0,6 C 4,0 km/h (1 Bft)
16/01/2012 10:30 0,0 C 91 % 1016,3 hPa 0,0 mm 2,5 km/h (1 Bft) S-SE 157 2 min 0 W/m -1,3 C 0,0 C 2,9 km/h (1 Bft)
16/01/2012 10:40 0,5 C 90 % 1016,3 hPa 0,0 mm 2,5 km/h (1 Bft) N 360 2 min 0 W/m -0,9 C 0,5 C 2,5 km/h (1 Bft)
16/01/2012 10:50 1,2 C 90 % 1016,5 hPa 0,0 mm 1,1 km/h (1 Bft) E-SE 112 2 min 0 W/m -0,3 C 1,2 C 4,3 km/h (1 Bft)
16/01/2012 11:00 1,6 C 89 % 1016,6 hPa 0,0 mm 1,1 km/h (1 Bft) E-SE 112 2 min 0 W/m -0,0 C 1,6 C 1,4 km/h (1 Bft)
16/01/2012 11:10 2,1 C 88 % 1016,7 hPa 0,0 mm 0,0 km/h (0 Bft) SE 135 2 min 0 W/m 0,3 C 2,1 C 0,0 km/h (0 Bft)
16/01/2012 11:20 2,7 C 87 % 1016,7 hPa 0,0 mm 0,0 km/h (0 Bft) E-NE 67 2 min 0 W/m 0,8 C 2,7 C 3,2 km/h (1 Bft)
16/01/2012 11:30 3,1 C 87 % 1016,9 hPa 0,0 mm 1,1 km/h (1 Bft) E-NE 67 2 min 0 W/m 1,2 C 3,1 C 4,0 km/h (1 Bft)
16/01/2012 11:40 3,7 C 85 % 1016,9 hPa 0,0 mm 0,0 km/h (0 Bft) SE 135 2 min 0 W/m 1,4 C 3,7 C 0,0 km/h (0 Bft)
16/01/2012 11:50 4,3 C 85 % 1017,1 hPa 0,0 mm 0,0 km/h (0 Bft) SE 135 2 min 0 W/m 2,0 C 4,3 C 0,0 km/h (0 Bft)
16/01/2012 12:00 4,8 C 85 % 1017,2 hPa 0,0 mm 1,8 km/h (1 Bft) E 90 2 min 0 W/m 2,5 C 4,8 C 4,3 km/h (1 Bft)
16/01/2012 12:10 5,3 C 84 % 1017,1 hPa 0,0 mm 0,0 km/h (0 Bft) E 90 2 min 0 W/m 2,8 C 5,3 C 0,0 km/h (0 Bft)
16/01/2012 12:20 5,8 C 83 % 1017,1 hPa 0,0 mm 0,0 km/h (0 Bft) E 90 2 min 0 W/m 3,1 C 5,8 C 0,0 km/h (0 Bft)
16/01/2012 12:30 6,4 C 82 % 1017,4 hPa 0,0 mm 0,0 km/h (0 Bft) E 90 2 min 0 W/m 3,6 C 6,4 C 0,0 km/h (0 Bft)
16/01/2012 12:40 7,2 C 81 % 1017,4 hPa 0,0 mm 0,0 km/h (0 Bft) E 90 2 min 0 W/m 4,2 C 7,2 C 0,0 km/h (0 Bft)
16/01/2012 12:50 8,1 C 80 % 1017,4 hPa 0,0 mm 0,0 km/h (0 Bft) E 90 2 min 0 W/m 4,9 C 8,1 C 0,0 km/h (0 Bft)
16/01/2012 13:00 8,8 C 78 % 1017,4 hPa 0,0 mm 0,0 km/h (0 Bft) E 90 2 min 0 W/m 5,2 C 8,8 C 0,0 km/h (0 Bft)
16/01/2012 13:10 9,1 C 77 % 1017,3 hPa 0,0 mm 0,4 km/h (0 Bft) E 90 2 min 0 W/m 5,3 C 9,1 C 3,2 km/h (1 Bft)
16/01/2012 13:20 9,4 C 75 % 1017,4 hPa 0,0 mm 0,0 km/h (0 Bft) E 90 2 min 0 W/m 5,2 C 9,4 C 0,0 km/h (0 Bft)
16/01/2012 13:30 9,6 C 72 % 1017,3 hPa 0,0 mm 0,7 km/h (0 Bft) E 90 2 min 0 W/m 4,8 C 9,6 C 3,2 km/h (1 Bft)
16/01/2012 13:40 9,8 C 73 % 1017,2 hPa 0,0 mm 0,0 km/h (0 Bft) E 90 2 min 0 W/m 5,2 C 9,8 C 0,0 km/h (0 Bft)
16/01/2012 13:50 9,9 C 72 % 1017,1 hPa 0,0 mm 2,9 km/h (1 Bft) E-NE 67 2 min 0 W/m 5,1 C 9,9 C 4,3 km/h (1 Bft)
16/01/2012 14:00 10,1 C 72 % 1017,3 hPa 0,0 mm 0,7 km/h (0 Bft) E-NE 67 2 min 0 W/m 5,3 C 10,1 C 0,7 km/h (0 Bft)
16/01/2012 14:10 10,2 C 71 % 1017,3 hPa 0,0 mm 1,8 km/h (1 Bft) N-NE 22 2 min 0 W/m 5,2 C 10,2 C 4,3 km/h (1 Bft)
16/01/2012 14:20 10,4 C 70 % 1017,3 hPa 0,0 mm 0,0 km/h (0 Bft) N-NE 22 2 min 0 W/m 5,2 C 10,4 C 0,0 km/h (0 Bft)
16/01/2012 14:30 10,6 C 69 % 1017,2 hPa 0,0 mm 2,5 km/h (1 Bft) NE 45 2 min 0 W/m 5,2 C 10,6 C 4,3 km/h (1 Bft)
16/01/2012 14:40 10,6 C 67 % 1017,0 hPa 0,0 mm 0,0 km/h (0 Bft) NE 45 2 min 0 W/m 4,7 C 10,6 C 0,0 km/h (0 Bft)
16/01/2012 14:50 10,7 C 68 % 1017,0 hPa 0,0 mm 0,0 km/h (0 Bft) NE 45 2 min 0 W/m 5,0 C 10,7 C 0,0 km/h (0 Bft)
16/01/2012 15:00 10,9 C 68 % 1017,0 hPa 0,0 mm 0,0 km/h (0 Bft) N-NE 22 2 min 0 W/m 5,2 C 10,9 C 3,6 km/h (1 Bft)
16/01/2012 15:10 10,6 C 68 % 1016,9 hPa 0,0 mm 1,4 km/h (1 Bft) N-NE 22 2 min 0 W/m 4,9 C 10,6 C 6,1 km/h (2 Bft)
16/01/2012 15:20 10,2 C 68 % 1017,0 hPa 0,0 mm 1,4 km/h (1 Bft) N-NE 22 2 min 0 W/m 4,6 C 10,2 C 3,2 km/h (1 Bft)
16/01/2012 15:30 9,8 C 69 % 1016,9 hPa 0,0 mm 0,0 km/h (0 Bft) N-NO 337 2 min 0 W/m 4,4 C 9,8 C 0,0 km/h (0 Bft)
16/01/2012 15:40 9,5 C 70 % 1017,1 hPa 0,0 mm 1,4 km/h (1 Bft) N-NE 22 2 min 0 W/m 4,3 C 9,5 C 1,4 km/h (1 Bft)
16/01/2012 15:50 9,1 C 72 % 1017,2 hPa 0,0 mm 1,8 km/h (1 Bft) N-NE 22 2 min 0 W/m 4,3 C 9,1 C 1,8 km/h (1 Bft)
16/01/2012 16:00 8,8 C 72 % 1017,3 hPa 0,0 mm 5,0 km/h (1 Bft) N-NE 22 2 min 0 W/m 4,0 C 8,4 C 7,6 km/h (2 Bft)
16/01/2012 16:10 8,4 C 73 % 1017,4 hPa 0,0 mm 2,9 km/h (1 Bft) N-NE 22 2 min 0 W/m 3,8 C 8,4 C 4,0 km/h (1 Bft)
16/01/2012 16:20 7,9 C 74 % 1017,4 hPa 0,0 mm 3,6 km/h (1 Bft) NE 45 2 min 0 W/m 3,6 C 7,9 C 7,2 km/h (2 Bft)
16/01/2012 16:30 7,5 C 75 % 1017,5 hPa 0,0 mm 2,5 km/h (1 Bft) N-NE 22 2 min 0 W/m 3,4 C 7,5 C 4,3 km/h (1 Bft)
16/01/2012 16:40 7,2 C 75 % 1017,6 hPa 0,0 mm 1,4 km/h (1 Bft) N-NE 22 2 min 0 W/m 3,1 C 7,2 C 1,4 km/h (1 Bft)
16/01/2012 16:50 6,9 C 76 % 1017,8 hPa 0,0 mm 0,0 km/h (0 Bft) N 360 2 min 0 W/m 3,0 C 6,9 C 0,0 km/h (0 Bft)
16/01/2012 17:00 6,6 C 76 % 1017,9 hPa 0,0 mm 0,7 km/h (0 Bft) NE 45 2 min 0 W/m 2,7 C 6,6 C 4,0 km/h (1 Bft)
16/01/2012 17:10 6,1 C 76 % 1018,1 hPa 0,0 mm 0,4 km/h (0 Bft) NE 45 2 min 0 W/m 2,2 C 6,1 C 3,2 km/h (1 Bft)
16/01/2012 17:20 5,6 C 76 % 1018,3 hPa 0,0 mm 2,2 km/h (1 Bft) NE 45 2 min 0 W/m 1,7 C 5,6 C 2,2 km/h (1 Bft)
16/01/2012 17:30 5,2 C 77 % 1018,2 hPa 0,0 mm 0,0 km/h (0 Bft) N-NE 22 0 min 0 W/m 1,5 C 5,2 C 0,0 km/h (0 Bft)
16/01/2012 17:40 4,8 C 78 % 1018,4 hPa 0,0 mm 2,5 km/h (1 Bft) NE 45 0 min 0 W/m 1,3 C 4,8 C 2,9 km/h (1 Bft)
16/01/2012 17:50 4,3 C 78 % 1018,6 hPa 0,0 mm 0,0 km/h (0 Bft) N-NE 22 0 min 0 W/m 0,8 C 4,3 C 0,0 km/h (0 Bft)
16/01/2012 18:00 3,9 C 79 % 1018,6 hPa 0,1 mm 1,1 km/h (1 Bft) N-NE 22 0 min 0 W/m 0,6 C 3,9 C 1,1 km/h (1 Bft)
16/01/2012 18:10 3,5 C 79 % 1018,9 hPa 0,0 mm 0,0 km/h (0 Bft) N-NE 22 0 min 0 W/m 0,2 C 3,5 C 0,0 km/h (0 Bft)
16/01/2012 18:20 3,1 C 80 % 1019,0 hPa 0,0 mm 2,2 km/h (1 Bft) N-NE 22 0 min 0 W/m -0,0 C 3,1 C 3,6 km/h (1 Bft)
16/01/2012 18:30 2,8 C 81 % 1019,2 hPa 0,0 mm 0,4 km/h (0 Bft) N-NE 22 0 min 0 W/m -0,1 C 2,8 C 0,4 km/h (0 Bft)
16/01/2012 18:40 2,6 C 81 % 1019,3 hPa 0,0 mm 0,0 km/h (0 Bft) NE 45 0 min 0 W/m -0,3 C 2,6 C 2,9 km/h (1 Bft)
16/01/2012 18:50 2,3 C 82 % 1019,3 hPa 0,0 mm 2,5 km/h (1 Bft) N-NE 22 0 min 0 W/m -0,4 C 2,3 C 4,3 km/h (1 Bft)
16/01/2012 19:00 2,1 C 83 % 1019,4 hPa 0,0 mm 0,0 km/h (0 Bft) N-NE 22 0 min 0 W/m -0,5 C 2,1 C 0,0 km/h (0 Bft)
16/01/2012 19:10 1,8 C 83 % 1019,6 hPa 0,0 mm 0,0 km/h (0 Bft) N-NE 22 0 min 0 W/m -0,8 C 1,8 C 0,0 km/h (0 Bft)
16/01/2012 19:20 1,6 C 83 % 1019,8 hPa 0,0 mm 0,0 km/h (0 Bft) N-NE 22 0 min 0 W/m -1,0 C 1,6 C 0,0 km/h (0 Bft)
16/01/2012 19:30 1,4 C 84 % 1019,8 hPa 0,0 mm 0,0 km/h (0 Bft) N-NE 22 0 min 0 W/m -1,0 C 1,4 C 0,0 km/h (0 Bft)
16/01/2012 19:40 1,1 C 84 % 1020,0 hPa 0,0 mm 0,0 km/h (0 Bft) N-NE 22 0 min 0 W/m -1,3 C 1,1 C 0,0 km/h (0 Bft)
16/01/2012 19:50 0,9 C 85 % 1020,1 hPa 0,0 mm 0,0 km/h (0 Bft) N-NE 22 0 min 0 W/m -1,3 C 0,9 C 0,0 km/h (0 Bft)
16/01/2012 20:00 0,8 C 85 % 1020,2 hPa 0,0 mm 0,0 km/h (0 Bft) N-NE 22 0 min 0 W/m -1,4 C 0,8 C 0,0 km/h (0 Bft)
16/01/2012 20:10 0,5 C 85 % 1020,3 hPa 0,0 mm 0,0 km/h (0 Bft) NE 45 0 min 0 W/m -1,7 C 0,5 C 0,0 km/h (0 Bft)
16/01/2012 20:20 0,3 C 86 % 1020,3 hPa 0,0 mm 0,0 km/h (0 Bft) NE 45 0 min 0 W/m -1,8 C 0,3 C 0,0 km/h (0 Bft)
16/01/2012 20:30 0,1 C 86 % 1020,3 hPa 0,0 mm 0,0 km/h (0 Bft) NE 45 0 min 0 W/m -2,0 C 0,1 C 0,0 km/h (0 Bft)
16/01/2012 20:40 -0,2 C 87 % 1020,4 hPa 0,0 mm 0,0 km/h (0 Bft) NE 45 0 min 0 W/m -2,1 C -0,2 C 0,0 km/h (0 Bft)
16/01/2012 20:50 -0,4 C 87 % 1020,4 hPa 0,0 mm 0,0 km/h (0 Bft) NE 45 0 min 0 W/m -2,3 C -0,4 C 0,0 km/h (0 Bft)
16/01/2012 21:00 -0,4 C 87 % 1020,5 hPa 0,0 mm 0,0 km/h (0 Bft) NE 45 0 min 0 W/m -2,3 C -0,4 C 0,0 km/h (0 Bft)
16/01/2012 21:10 -0,6 C 87 % 1020,5 hPa 0,0 mm 0,0 km/h (0 Bft) NE 45 0 min 0 W/m -2,5 C -0,6 C 0,0 km/h (0 Bft)
16/01/2012 21:20 -0,7 C 87 % 1020,7 hPa 0,0 mm 0,0 km/h (0 Bft) NE 45 0 min 0 W/m -2,6 C -0,7 C 0,0 km/h (0 Bft)
16/01/2012 21:30 -0,8 C 87 % 1020,9 hPa 0,0 mm 0,0 km/h (0 Bft) NE 45 0 min 0 W/m -2,7 C -0,8 C 0,0 km/h (0 Bft)
16/01/2012 21:40 -0,9 C 88 % 1021,1 hPa 0,0 mm 0,0 km/h (0 Bft) NE 45 0 min 0 W/m -2,6 C -0,9 C 0,0 km/h (0 Bft)
16/01/2012 21:50 -1,0 C 88 % 1021,1 hPa 0,0 mm 0,0 km/h (0 Bft) NE 45 0 min 0 W/m -2,7 C -1,0 C 0,0 km/h (0 Bft)
16/01/2012 22:00 -1,1 C 88 % 1021,3 hPa 0,0 mm 0,0 km/h (0 Bft) NE 45 0 min 0 W/m -2,8 C -1,1 C 0,0 km/h (0 Bft)
16/01/2012 22:10 -1,1 C 88 % 1021,4 hPa 0,0 mm 0,0 km/h (0 Bft) NE 45 0 min 0 W/m -2,8 C -1,1 C 0,0 km/h (0 Bft)
16/01/2012 22:20 -1,1 C 89 % 1021,5 hPa 0,0 mm 0,0 km/h (0 Bft) NE 45 0 min 0 W/m -2,7 C -1,1 C 0,0 km/h (0 Bft)
16/01/2012 22:30 -1,2 C 89 % 1021,6 hPa 0,0 mm 0,0 km/h (0 Bft) E-NE 67 0 min 0 W/m -2,8 C -1,2 C 0,0 km/h (0 Bft)
16/01/2012 22:40 -1,2 C 89 % 1021,7 hPa 0,0 mm 0,0 km/h (0 Bft) E-SE 112 0 min 0 W/m -2,8 C -1,2 C 2,9 km/h (1 Bft)
16/01/2012 22:50 -1,1 C 89 % 1021,7 hPa 0,0 mm 0,4 km/h (0 Bft) E-SE 112 0 min 0 W/m -2,7 C -1,1 C 0,4 km/h (0 Bft)
16/01/2012 23:00 -0,9 C 89 % 1021,8 hPa 0,0 mm 2,2 km/h (1 Bft) E-SE 112 0 min 0 W/m -2,5 C -0,9 C 4,3 km/h (1 Bft)
16/01/2012 23:10 -0,9 C 89 % 1022,0 hPa 0,0 mm 0,7 km/h (0 Bft) E-SE 112 0 min 0 W/m -2,5 C -0,9 C 0,7 km/h (0 Bft)
16/01/2012 23:20 -1,0 C 89 % 1022,1 hPa 0,0 mm 0,7 km/h (0 Bft) E 90 0 min 0 W/m -2,6 C -1,0 C 3,2 km/h (1 Bft)
_ Min-Heure 02:30 14:40 02:10 - 22:40 - - - - 02:30 02:30 22:30
Minimum _ -4,6 C 67 % 1013,4 hPa - 0,0 km/h (0 Bft) - - - - -5,6 C -4,6 C 0,0 km/h (0 Bft)
_ Max-Heure 15:00 09:40 23:20 18:00 16:00 - - 17:20 23:20 14:00 15:00 16:00
Maximum _ 10,9 C 94 % 1022,1 hPa 0,1 mm 5,0 km/h
N-NE (1 Bft)
- - 2 min 0 W/m 5,3 C 10,9 C 7,6 km/h
N-NE (2 Bft)
Moyenne _ 0,6 C 86 % 1016,7 hPa #0,1 mm 0,8 km/h (0 Bft) E - #1:44 h 0 W/m -1,5 C 0,6 C 2,0 km/h (1 Bft)
Saint Bonnet de Bellac- Haute Vienne - France